Regional Weather Roundup
Issued by NWS Charleston, SC

Home | Current Version | Previous Version | Text Only | Print | Product List | Glossary On
Versions: 1 2 3 4 5 6 7 8 9 10 11 12 13 14 15 16 17 18 19 20 21 22 23 24 25 26 27 28 29 30 31 32 33 34 35 36 37 38 39 40 41 42 43 44 45 46 47 48 49 50
000
ASUS42 KCHS 250912
RWRCHS

REGIONAL WEATHER ROUNDUP
NATIONAL WEATHER SERVICE CHARLESTON SC
500 AM EDT SAT MAR 25 2017

NOTE: "FAIR" INDICATES FEW OR NO CLOUDS BELOW 12,000 FEET WITH NO
SIGNIFICANT WEATHER AND/OR OBSTRUCTIONS TO VISIBILITY.

NOT ALL STATIONS ARE QUALITY CONTROLLED. USE DATA WITH CAUTION...
ESPECIALLY DEWPOINT OBSERVATIONS.

SCZ027-030-031-034>040-042>050-251000-
...SOUTHEAST SOUTH CAROLINA...

CITY           SKY/WX    TMP DP  RH WIND       PRES   REMARKS
N CHARLESTON   CLOUDY    59  54  83 SE6       30.29F
WATERFRONT PRK   N/A     64  57  78 SE8       30.29F
JOHNS ISLAND   FAIR      63  55  77 SE8       30.29F
PINOPOLIS        N/A     57  55  94 CALM      30.21F
MONCKS CORNER  FAIR      54  52  94 CALM      30.29F
SUMMERVILLE    PTSUNNY   55  54  94 CALM      30.30F
BEAUFORT MCAS  MOCLDY    58  57  97 CALM      30.28F FOG
BEAUFORT ARPT  FAIR      61  55  82 CALM      30.27F
HILTON HEAD IS PTCLDY    64  57  77 SE6       30.28F
WALTERBORO     CLOUDY    54  52  94 CALM      30.29F
ALLENDALE      FAIR      57  54  88 CALM      30.27F

...SOUTHERN MIDLANDS AND PEE DEE...

CITY           SKY/WX    TMP DP  RH WIND       PRES   REMARKS
GEORGETOWN     FAIR      52  52 100 CALM      30.32F
KINGSTREE      CLOUDY    50  46  87 CALM      30.30F
ORANGEBURG     CLOUDY    54  51  90 CALM      30.29F
BARNWELL       FAIR      55  54  94 CALM      30.28F
AIKEN          FAIR      54  50  87 SE3       30.31F
MANNING        CLOUDY    54  50  87 CALM      30.30F
COLUMBIA       CLOUDY    57  51  80 CALM      30.28F
SUMTER         CLOUDY    52  49  89 CALM      30.28F
FLORENCE       MOCLDY    53  51  93 CALM      30.31F
MYRTLE BEACH   CLOUDY    63  55  77 S8        30.33F
N MYRTLE BEACH CLOUDY    57  55  93 CALM      30.32F

$$

GAZ063-065-086>088-099>101-113>116-118-119-134>141-150-251000-
...SOUTHEAST GEORGIA...

CITY           SKY/WX    TMP DP  RH WIND       PRES   REMARKS
SAVANNAH ARPT  CLOUDY    57  54  89 CALM      30.27F
HUNTER AAF     CLOUDY    61  58  89 SE6       30.24F
FORT STEWART   CLOUDY    55  53  92 CALM      30.24F
STATESBORO     CLOUDY    53  53 100 CALM      30.26F
SYLVANIA       CLOUDY   N/A N/A N/A SE3       30.27F
CLAXTON        FAIR     N/A N/A N/A CALM      30.26F

...CSRA...CENTRAL AND FAR SOUTHEAST GEORGIA...

CITY           SKY/WX    TMP DP  RH WIND       PRES   REMARKS
THOMSON        PTCLDY    54  51  89 SE3       30.32S
AUGUSTA-BUSH   MOCLDY    54  52  93 CALM      30.27F
AUGUSTA-DANIEL PTCLDY    58  52  80 SE6       30.28F
SWAINSBORO     FAIR      57  54  88 SE3       30.26F
VIDALIA        PTCLDY    55  54  94 E3        30.25S
EASTMAN        FAIR      56  56  99 CALM      30.27S
HAZLEHURST     FAIR      59  58  96 CALM      30.23F
ALMA           MOCLDY    58  56  93 E5        30.23F
WAYCROSS       CLOUDY    60  60 100 SE8       30.23F
JESUP          FAIR      54  52  94 CALM      30.25F
BAXLEY         FAIR      59  59 100 SE3       30.23F
BRUNSWICK      CLOUDY    64  61  88 E6        30.25F
SAINT SIMONS   PTCLDY    65  58  78 E10       30.24F

$$

SCZ027-028-034-036>038-045-046-048>050-GAZ119-141-251000-
...LAKE AND SUPPLEMENTAL COASTAL OBSERVATIONS...

STATION/POSITION TIME  TEMP    WIND        PRES    WAVE   SWELL
                       AIR SEA DIR/SP/G            HT/PER HT/PER/DIR
                 (UTC) (F)     (DEG/KT/KT) (MB)    (FT/S) (FT/S/D)
WINYAH BAY       NOT AVBL
LAKE MURRAY      0820   58        CALM     1025.1
ACE BASIN NERRS  0745   62        CALM     1026.0
FORT PULASKI     0848   64 62  130/  7/  9 1025.1F
SAPELO ISLAND    0800   63     120/  4     1025.0

$$

ANZ835-935-AMZ111-154-330-350-352-354-370-450-454-472-251000-
...C-MAN AND BUOY OBSERVATIONS...

STATION/POSITION TIME  TEMP    WIND        PRES    WAVE   SWELL
                       AIR SEA DIR/SP/G            HT/PER HT/PER/DIR
                 (UTC) (F)     (DEG/KT/KT) (MB)    (FT/S) (FT/S/D)
BUOY 41004       0750   69 71  150/ 17/ 21 1026.3    5/ 8   3/120/ 8
BUOY 41008       0750   64 62  120/  8/ 10 1025.2    5/ 7   3/130/ 7
FOLLY BEACH CMAN 0800   62     140/  9/ 10 1026.9F
CAPERS NEARSHORE 0808   62     160/  8/ 10 1026.2F
FRIPP NEARSHORE  0808   62 60  130/  6/  8 1025.4F


STATION/POSITION TIME  TEMP    WIND        PRES    WAVE   SWELL
                       AIR SEA DIR/SP/G            HT/PER HT/PER/DIR
                 (UTC) (F)     (DEG/KT/KT) (MB)    (FT/S) (FT/S/D)
5E ST. MARYS GA  0830      64                N/A     5/ 8
FRYING PAN BUOY  0850   68 74  170/ 10/ 14 1027.0F   4/ 8   3/110/ 8
BUOY 41025       0850   69 76  230/ 19/ 23 1027.0F   4/ 5   2/ 90/10
CAPE LOOKOUT NC  0800   65     220/  9/ 11 1027.5F
BUOY 41002       0850   64 73  120/  8/ 12 1028.0F   5/ 8   5/ 80/ 8
BUOY 41010       NOT AVBL
ST AUGUSTINE FL  0900   67 66  130/ 11/ 11 1024.5F


$$



USA.gov is the U.S. government's official web portal to all federal, state and local government web resources and services.